Terminal Aerodrome Forecast
Issued by NWS Grand Rapids, MI

Home | Current Version | Previous Version | Text Only | Print | Product List | Glossary On
Versions: 1 2 3 4 5 6 7 8 9 10 11 12 13 14 15 16 17 18 19 20 21 22 23 24 25 26 27 28 29 30 31 32
000
FTUS43 KGRR 140246 AAB
TAFGRR
TAF AMD
KGRR 140246Z 1403/1424 02017KT 1 1/2SM -SN OVC022
     FM140345 02016KT 4SM -SN OVC035
     FM140500 36010KT P6SM BKN050
     FM142100 25007KT P6SM OVC025=

USA.gov is the U.S. government's official web portal to all federal, state and local government web resources and services.